owner,sensor,date,latitude,longitude,vertical_datum,wind_speed,wind_to_direction,wind_speed_of_gust,qcFlag 
DISL,ioos:station:DISL:CATA:1,2012-03-01T00:00:00Z,30.3085,-88.1395,0.0,5.97,184.5,-9999.0,'1111122,1111122,1111122' 
DISL,ioos:station:DISL:CATA:1,2012-03-01T00:30:00Z,30.3085,-88.1395,0.0,7.0,191.3,-9999.0,'1111122,1111122,1111122' 
DISL,ioos:station:DISL:CATA:1,2012-03-01T01:00:00Z,30.3085,-88.1395,0.0,7.39,198.3,-9999.0,'1111122,1111122,1111122' 
DISL,ioos:station:DISL:CATA:1,2012-03-01T01:30:00Z,30.3085,-88.1395,0.0,6.65,197.8,-9999.0,'1111122,1111122,1111122' 
DISL,ioos:station:DISL:CATA:1,2012-03-01T02:00:00Z,30.3085,-88.1395,0.0,7.65,197.5,-9999.0,'1111122,1111122,1111122' 
DISL,ioos:station:DISL:CATA:1,2012-03-01T02:30:00Z,30.3085,-88.1395,0.0,7.14,194.9,-9999.0,'1111122,1111122,1111122' 
DISL,ioos:station:DISL:CATA:1,2012-03-01T03:00:00Z,30.3085,-88.1395,0.0,5.56,192.6,-9999.0,'1111122,1111122,1111122' 
DISL,ioos:station:DISL:CATA:1,2012-03-01T03:30:00Z,30.3085,-88.1395,0.0,6.3,197.8,-9999.0,'1111122,1111122,1111122' 
DISL,ioos:station:DISL:CATA:1,2012-03-01T04:00:00Z,30.3085,-88.1395,0.0,5.5,199.2,-9999.0,'1111122,1111122,1111122' 
DISL,ioos:station:DISL:CATA:1,2012-03-01T04:30:00Z,30.3085,-88.1395,0.0,5.25,195.5,-9999.0,'1111122,1111122,1111122' 
DISL,ioos:station:DISL:CATA:1,2012-03-01T05:00:00Z,30.3085,-88.1395,0.0,6.69,197.8,-9999.0,'1111122,1111122,1111122' 
DISL,ioos:station:DISL:CATA:1,2012-03-01T05:30:00Z,30.3085,-88.1395,0.0,6.74,198.1,-9999.0,'1111122,1111122,1111122' 
DISL,ioos:station:DISL:CATA:1,2012-03-01T06:00:00Z,30.3085,-88.1395,0.0,6.18,198.3,-9999.0,'1111122,1111122,1111122' 
DISL,ioos:station:DISL:CATA:1,2012-03-01T06:30:00Z,30.3085,-88.1395,0.0,6.53,201.6,-9999.0,'1111122,1111122,1111122' 
DISL,ioos:station:DISL:CATA:1,2012-03-01T07:00:00Z,30.3085,-88.1395,0.0,6.77,205.6,-9999.0,'1111122,1111122,1111122' 
DISL,ioos:station:DISL:CATA:1,2012-03-01T07:30:00Z,30.3085,-88.1395,0.0,6.27,207.5,-9999.0,'1111122,1111122,1111122' 
DISL,ioos:station:DISL:CATA:1,2012-03-01T08:00:00Z,30.3085,-88.1395,0.0,6.35,207.2,-9999.0,'1111122,1111122,1111122' 
DISL,ioos:station:DISL:CATA:1,2012-03-01T08:30:00Z,30.3085,-88.1395,0.0,5.86,219.7,-9999.0,'1111122,1111122,1111122' 
DISL,ioos:station:DISL:CATA:1,2012-03-01T09:00:00Z,30.3085,-88.1395,0.0,6.37,215.2,-9999.0,'1111122,1111122,1111122' 
DISL,ioos:station:DISL:CATA:1,2012-03-01T09:30:00Z,30.3085,-88.1395,0.0,6.41,214.4,-9999.0,'1111122,1111122,1111122' 
DISL,ioos:station:DISL:CATA:1,2012-03-01T10:00:00Z,30.3085,-88.1395,0.0,6.25,225.4,-9999.0,'1111122,1111122,1111122' 
DISL,ioos:station:DISL:CATA:1,2012-03-01T10:30:00Z,30.3085,-88.1395,0.0,4.61,240.4,-9999.0,'1111122,1111122,1111122' 
DISL,ioos:station:DISL:CATA:1,2012-03-01T11:00:00Z,30.3085,-88.1395,0.0,3.74,234.4,-9999.0,'1111122,1111122,1111122' 
DISL,ioos:station:DISL:CATA:1,2012-03-01T11:30:00Z,30.3085,-88.1395,0.0,3.96,242.7,-9999.0,'1111122,1111122,1111122' 
DISL,ioos:station:DISL:CATA:1,2012-03-01T12:00:00Z,30.3085,-88.1395,0.0,3.19,253.3,-9999.0,'1111122,1111122,1111122' 
DISL,ioos:station:DISL:CATA:1,2012-03-01T12:30:00Z,30.3085,-88.1395,0.0,3.95,243.6,-9999.0,'1111122,1111122,1111122' 
DISL,ioos:station:DISL:CATA:1,2012-03-01T13:00:00Z,30.3085,-88.1395,0.0,3.19,274.2,-9999.0,'1111122,1111122,1111122' 
DISL,ioos:station:DISL:CATA:1,2012-03-01T13:30:00Z,30.3085,-88.1395,0.0,2.56,242.7,-9999.0,'1111122,1111122,1111122' 
DISL,ioos:station:DISL:CATA:1,2012-03-01T14:00:00Z,30.3085,-88.1395,0.0,3.21,214.1,-9999.0,'1111122,1111122,1111122' 
DISL,ioos:station:DISL:CATA:1,2012-03-01T14:30:00Z,30.3085,-88.1395,0.0,4.85,219.2,-9999.0,'1111122,1111122,1111122' 
DISL,ioos:station:DISL:CATA:1,2012-03-01T15:00:00Z,30.3085,-88.1395,0.0,4.51,224.8,-9999.0,'1111122,1111122,1111122' 
DISL,ioos:station:DISL:CATA:1,2012-03-01T15:30:00Z,30.3085,-88.1395,0.0,6.32,217.0,-9999.0,'1111122,1111122,1111122' 
DISL,ioos:station:DISL:CATA:1,2012-03-01T16:00:00Z,30.3085,-88.1395,0.0,7.66,219.5,-9999.0,'1111122,1111122,1111122' 
DISL,ioos:station:DISL:CATA:1,2012-03-01T16:30:00Z,30.3085,-88.1395,0.0,9.09,211.9,-9999.0,'1111122,1111122,1111122' 
DISL,ioos:station:DISL:CATA:1,2012-03-01T17:00:00Z,30.3085,-88.1395,0.0,8.31,225.1,-9999.0,'1111122,1111122,1111122' 
DISL,ioos:station:DISL:CATA:1,2012-03-01T17:30:00Z,30.3085,-88.1395,0.0,7.86,224.4,-9999.0,'1111122,1111122,1111122' 
DISL,ioos:station:DISL:CATA:1,2012-03-01T18:00:00Z,30.3085,-88.1395,0.0,7.77,223.6,-9999.0,'1111122,1111122,1111122' 
DISL,ioos:station:DISL:CATA:1,2012-03-01T18:30:00Z,30.3085,-88.1395,0.0,7.0,229.1,-9999.0,'1111122,1111122,1111122' 
DISL,ioos:station:DISL:CATA:1,2012-03-01T19:00:00Z,30.3085,-88.1395,0.0,6.52,235.6,-9999.0,'1111122,1111122,1111122' 
DISL,ioos:station:DISL:CATA:1,2012-03-01T19:30:00Z,30.3085,-88.1395,0.0,5.53,231.5,-9999.0,'1111122,1111122,1111122' 
DISL,ioos:station:DISL:CATA:1,2012-03-01T20:00:00Z,30.3085,-88.1395,0.0,5.83,208.5,-9999.0,'1111122,1111122,1111122' 
DISL,ioos:station:DISL:CATA:1,2012-03-01T20:30:00Z,30.3085,-88.1395,0.0,6.1,215.6,-9999.0,'1111122,1111122,1111122' 
DISL,ioos:station:DISL:CATA:1,2012-03-01T21:00:00Z,30.3085,-88.1395,0.0,5.31,219.2,-9999.0,'1111122,1111122,1111122' 
DISL,ioos:station:DISL:CATA:1,2012-03-01T21:30:00Z,30.3085,-88.1395,0.0,5.35,219.4,-9999.0,'1111122,1111122,1111122' 
DISL,ioos:station:DISL:CATA:1,2012-03-01T22:00:00Z,30.3085,-88.1395,0.0,5.95,210.6,-9999.0,'1111122,1111122,1111122' 
DISL,ioos:station:DISL:CATA:1,2012-03-01T22:30:00Z,30.3085,-88.1395,0.0,6.1,203.9,-9999.0,'1111122,1111122,1111122' 
DISL,ioos:station:DISL:CATA:1,2012-03-01T23:00:00Z,30.3085,-88.1395,0.0,5.4,200.2,-9999.0,'1111122,1111122,1111122' 
DISL,ioos:station:DISL:CATA:1,2012-03-01T23:30:00Z,30.3085,-88.1395,0.0,5.15,198.9,-9999.0,'1111122,1111122,1111122' 
DISL,ioos:station:DISL:CATA:1,2012-03-02T00:00:00Z,30.3085,-88.1395,0.0,5.28,210.1,-9999.0,'1111122,1111122,1111122' 
DISL,ioos:station:DISL:CATA:1,2012-03-02T00:30:00Z,30.3085,-88.1395,0.0,4.95,207.2,-9999.0,'1111122,1111122,1111122' 
DISL,ioos:station:DISL:CATA:1,2012-03-02T01:00:00Z,30.3085,-88.1395,0.0,4.83,197.0,-9999.0,'1111122,1111122,1111122' 
DISL,ioos:station:DISL:CATA:1,2012-03-02T01:30:00Z,30.3085,-88.1395,0.0,4.28,206.1,-9999.0,'1111122,1111122,1111122' 
DISL,ioos:station:DISL:CATA:1,2012-03-02T02:00:00Z,30.3085,-88.1395,0.0,4.28,200.1,-9999.0,'1111122,1111122,1111122' 
DISL,ioos:station:DISL:CATA:1,2012-03-02T02:30:00Z,30.3085,-88.1395,0.0,5.02,197.2,-9999.0,'1111122,1111122,1111122' 
DISL,ioos:station:DISL:CATA:1,2012-03-02T03:00:00Z,30.3085,-88.1395,0.0,6.6,196.1,-9999.0,'1111122,1111122,1111122' 
DISL,ioos:station:DISL:CATA:1,2012-03-02T03:30:00Z,30.3085,-88.1395,0.0,6.22,196.5,-9999.0,'1111122,1111122,1111122' 
DISL,ioos:station:DISL:CATA:1,2012-03-02T04:00:00Z,30.3085,-88.1395,0.0,6.26,196.3,-9999.0,'1111122,1111122,1111122' 
DISL,ioos:station:DISL:CATA:1,2012-03-02T04:30:00Z,30.3085,-88.1395,0.0,5.29,193.2,-9999.0,'1111122,1111122,1111122' 
DISL,ioos:station:DISL:CATA:1,2012-03-02T05:00:00Z,30.3085,-88.1395,0.0,5.09,202.8,-9999.0,'1111122,1111122,1111122' 
DISL,ioos:station:DISL:CATA:1,2012-03-02T05:30:00Z,30.3085,-88.1395,0.0,5.44,198.6,-9999.0,'1111122,1111122,1111122' 
DISL,ioos:station:DISL:CATA:1,2012-03-02T06:00:00Z,30.3085,-88.1395,0.0,5.17,200.0,-9999.0,'1111122,1111122,1111122' 
DISL,ioos:station:DISL:CATA:1,2012-03-02T06:30:00Z,30.3085,-88.1395,0.0,4.6,193.7,-9999.0,'1111122,1111122,1111122' 
DISL,ioos:station:DISL:CATA:1,2012-03-02T07:00:00Z,30.3085,-88.1395,0.0,4.51,201.5,-9999.0,'1111122,1111122,1111122' 
DISL,ioos:station:DISL:CATA:1,2012-03-02T07:30:00Z,30.3085,-88.1395,0.0,3.03,194.4,-9999.0,'1111122,1111122,1111122' 
DISL,ioos:station:DISL:CATA:1,2012-03-02T08:00:00Z,30.3085,-88.1395,0.0,3.52,180.9,-9999.0,'1111122,1111122,1111122' 
DISL,ioos:station:DISL:CATA:1,2012-03-02T08:30:00Z,30.3085,-88.1395,0.0,5.84,198.7,-9999.0,'1111122,1111122,1111122' 
DISL,ioos:station:DISL:CATA:1,2012-03-02T09:00:00Z,30.3085,-88.1395,0.0,4.7,187.8,-9999.0,'1111122,1111122,1111122' 
DISL,ioos:station:DISL:CATA:1,2012-03-02T09:30:00Z,30.3085,-88.1395,0.0,6.2,192.6,-9999.0,'1111122,1111122,1111122' 
DISL,ioos:station:DISL:CATA:1,2012-03-02T10:00:00Z,30.3085,-88.1395,0.0,5.97,197.5,-9999.0,'1111122,1111122,1111122' 
DISL,ioos:station:DISL:CATA:1,2012-03-02T10:30:00Z,30.3085,-88.1395,0.0,6.56,194.3,-9999.0,'1111122,1111122,1111122' 
DISL,ioos:station:DISL:CATA:1,2012-03-02T11:00:00Z,30.3085,-88.1395,0.0,5.21,191.2,-9999.0,'1111122,1111122,1111122' 
DISL,ioos:station:DISL:CATA:1,2012-03-02T11:30:00Z,30.3085,-88.1395,0.0,4.11,187.0,-9999.0,'1111122,1111122,1111122' 
DISL,ioos:station:DISL:CATA:1,2012-03-02T12:00:00Z,30.3085,-88.1395,0.0,4.31,188.7,-9999.0,'1111122,1111122,1111122' 
DISL,ioos:station:DISL:CATA:1,2012-03-02T12:30:00Z,30.3085,-88.1395,0.0,4.48,180.3,-9999.0,'1111122,1111122,1111122' 
DISL,ioos:station:DISL:CATA:1,2012-03-02T13:00:00Z,30.3085,-88.1395,0.0,5.22,185.0,-9999.0,'1111122,1111122,1111122' 
DISL,ioos:station:DISL:CATA:1,2012-03-02T13:30:00Z,30.3085,-88.1395,0.0,4.74,186.4,-9999.0,'1111122,1111122,1111122' 
DISL,ioos:station:DISL:CATA:1,2012-03-02T14:00:00Z,30.3085,-88.1395,0.0,4.32,193.0,-9999.0,'1111122,1111122,1111122' 
DISL,ioos:station:DISL:CATA:1,2012-03-02T14:30:00Z,30.3085,-88.1395,0.0,5.72,183.0,-9999.0,'1111122,1111122,1111122' 
DISL,ioos:station:DISL:CATA:1,2012-03-02T15:00:00Z,30.3085,-88.1395,0.0,5.38,183.1,-9999.0,'1111122,1111122,1111122' 
DISL,ioos:station:DISL:CATA:1,2012-03-02T15:30:00Z,30.3085,-88.1395,0.0,5.14,184.3,-9999.0,'1111122,1111122,1111122' 
DISL,ioos:station:DISL:CATA:1,2012-03-02T16:00:00Z,30.3085,-88.1395,0.0,4.25,186.4,-9999.0,'1111122,1111122,1111122' 
DISL,ioos:station:DISL:CATA:1,2012-03-02T16:30:00Z,30.3085,-88.1395,0.0,5.11,176.9,-9999.0,'1111122,1111122,1111122' 
DISL,ioos:station:DISL:CATA:1,2012-03-02T17:00:00Z,30.3085,-88.1395,0.0,5.53,173.2,-9999.0,'1111122,1111122,1111122' 
DISL,ioos:station:DISL:CATA:1,2012-03-02T17:30:00Z,30.3085,-88.1395,0.0,6.33,176.1,-9999.0,'1111122,1111122,1111122' 
DISL,ioos:station:DISL:CATA:1,2012-03-02T18:00:00Z,30.3085,-88.1395,0.0,6.38,178.1,-9999.0,'1111122,1111122,1111122' 
DISL,ioos:station:DISL:CATA:1,2012-03-02T18:30:00Z,30.3085,-88.1395,0.0,6.87,177.8,-9999.0,'1111122,1111122,1111122' 
DISL,ioos:station:DISL:CATA:1,2012-03-02T19:00:00Z,30.3085,-88.1395,0.0,7.74,176.1,-9999.0,'1111122,1111122,1111122' 
DISL,ioos:station:DISL:CATA:1,2012-03-02T19:30:00Z,30.3085,-88.1395,0.0,6.87,180.3,-9999.0,'1111122,1111122,1111122' 
DISL,ioos:station:DISL:CATA:1,2012-03-02T20:00:00Z,30.3085,-88.1395,0.0,6.3,187.4,-9999.0,'1111122,1111122,1111122' 
DISL,ioos:station:DISL:CATA:1,2012-03-02T20:30:00Z,30.3085,-88.1395,0.0,6.4,191.8,-9999.0,'1111122,1111122,1111122' 
DISL,ioos:station:DISL:CATA:1,2012-03-02T21:00:00Z,30.3085,-88.1395,0.0,6.74,193.9,-9999.0,'1111122,1111122,1111122' 
DISL,ioos:station:DISL:CATA:1,2012-03-02T21:30:00Z,30.3085,-88.1395,0.0,6.94,190.6,-9999.0,'1111122,1111122,1111122' 
DISL,ioos:station:DISL:CATA:1,2012-03-02T22:00:00Z,30.3085,-88.1395,0.0,7.52,199.4,-9999.0,'1111122,1111122,1111122' 
DISL,ioos:station:DISL:CATA:1,2012-03-02T22:30:00Z,30.3085,-88.1395,0.0,9.54,201.4,-9999.0,'1111122,1111122,1111122' 
DISL,ioos:station:DISL:CATA:1,2012-03-02T23:00:00Z,30.3085,-88.1395,0.0,8.7,201.8,-9999.0,'1111122,1111122,1111122' 
DISL,ioos:station:DISL:CATA:1,2012-03-02T23:30:00Z,30.3085,-88.1395,0.0,9.28,199.4,-9999.0,'1111122,1111122,1111122' 
DISL,ioos:station:DISL:CATA:1,2012-03-03T00:00:00Z,30.3085,-88.1395,0.0,9.99,200.7,-9999.0,'1111122,1111122,1111122' 
DISL,ioos:station:DISL:CATA:1,2012-03-03T00:30:00Z,30.3085,-88.1395,0.0,10.44,201.9,-9999.0,'1111122,1111122,1111122' 
DISL,ioos:station:DISL:CATA:1,2012-03-03T01:00:00Z,30.3085,-88.1395,0.0,9.45,199.2,-9999.0,'1111122,1111122,1111122' 
DISL,ioos:station:DISL:CATA:1,2012-03-03T01:30:00Z,30.3085,-88.1395,0.0,8.66,207.8,-9999.0,'1111122,1111122,1111122' 
DISL,ioos:station:DISL:CATA:1,2012-03-03T02:00:00Z,30.3085,-88.1395,0.0,8.41,212.1,-9999.0,'1111122,1111122,1111122' 
DISL,ioos:station:DISL:CATA:1,2012-03-03T02:30:00Z,30.3085,-88.1395,0.0,9.0,207.9,-9999.0,'1111122,1111122,1111122' 
DISL,ioos:station:DISL:CATA:1,2012-03-03T03:00:00Z,30.3085,-88.1395,0.0,8.53,207.2,-9999.0,'1111122,1111122,1111122' 
DISL,ioos:station:DISL:CATA:1,2012-03-03T03:30:00Z,30.3085,-88.1395,0.0,7.54,200.9,-9999.0,'1111122,1111122,1111122' 
DISL,ioos:station:DISL:CATA:1,2012-03-03T04:00:00Z,30.3085,-88.1395,0.0,7.73,206.2,-9999.0,'1111122,1111122,1111122' 
DISL,ioos:station:DISL:CATA:1,2012-03-03T04:30:00Z,30.3085,-88.1395,0.0,8.49,203.8,-9999.0,'1111122,1111122,1111122' 
DISL,ioos:station:DISL:CATA:1,2012-03-03T05:00:00Z,30.3085,-88.1395,0.0,9.28,206.4,-9999.0,'1111122,1111122,1111122' 
DISL,ioos:station:DISL:CATA:1,2012-03-03T05:30:00Z,30.3085,-88.1395,0.0,8.57,211.8,-9999.0,'1111122,1111122,1111122' 
DISL,ioos:station:DISL:CATA:1,2012-03-03T06:00:00Z,30.3085,-88.1395,0.0,8.05,214.0,-9999.0,'1111122,1111122,1111122' 
DISL,ioos:station:DISL:CATA:1,2012-03-03T06:30:00Z,30.3085,-88.1395,0.0,8.36,213.8,-9999.0,'1111122,1111122,1111122' 
DISL,ioos:station:DISL:CATA:1,2012-03-03T07:00:00Z,30.3085,-88.1395,0.0,9.01,220.9,-9999.0,'1111122,1111122,1111122' 
DISL,ioos:station:DISL:CATA:1,2012-03-03T07:30:00Z,30.3085,-88.1395,0.0,9.0,223.2,-9999.0,'1111122,1111122,1111122' 
DISL,ioos:station:DISL:CATA:1,2012-03-03T08:00:00Z,30.3085,-88.1395,0.0,9.03,229.3,-9999.0,'1111122,1111122,1111122' 
DISL,ioos:station:DISL:CATA:1,2012-03-03T08:30:00Z,30.3085,-88.1395,0.0,7.38,247.0,-9999.0,'1111122,1111122,1111122' 
DISL,ioos:station:DISL:CATA:1,2012-03-03T09:00:00Z,30.3085,-88.1395,0.0,8.25,233.8,-9999.0,'1111122,1111122,1111122' 
DISL,ioos:station:DISL:CATA:1,2012-03-03T09:30:00Z,30.3085,-88.1395,0.0,8.54,239.3,-9999.0,'1111122,1111122,1111122' 
DISL,ioos:station:DISL:CATA:1,2012-03-03T10:00:00Z,30.3085,-88.1395,0.0,8.41,234.7,-9999.0,'1111122,1111122,1111122' 
DISL,ioos:station:DISL:CATA:1,2012-03-03T10:30:00Z,30.3085,-88.1395,0.0,8.3,230.3,-9999.0,'1111122,1111122,1111122' 
DISL,ioos:station:DISL:CATA:1,2012-03-03T11:00:00Z,30.3085,-88.1395,0.0,8.85,220.5,-9999.0,'1111122,1111122,1111122' 
DISL,ioos:station:DISL:CATA:1,2012-03-03T11:30:00Z,30.3085,-88.1395,0.0,8.03,230.8,-9999.0,'1111122,1111122,1111122' 
DISL,ioos:station:DISL:CATA:1,2012-03-03T12:00:00Z,30.3085,-88.1395,0.0,6.1,238.0,-9999.0,'1111122,1111122,1111122' 
DISL,ioos:station:DISL:CATA:1,2012-03-03T12:30:00Z,30.3085,-88.1395,0.0,5.42,272.8,-9999.0,'1111122,1111122,1111122' 
DISL,ioos:station:DISL:CATA:1,2012-03-03T13:00:00Z,30.3085,-88.1395,0.0,7.49,304.6,-9999.0,'1111122,1111122,1111122' 
DISL,ioos:station:DISL:CATA:1,2012-03-03T13:30:00Z,30.3085,-88.1395,0.0,7.52,12.89,-9999.0,'1111122,1111122,1111122' 
DISL,ioos:station:DISL:CATA:1,2012-03-03T14:00:00Z,30.3085,-88.1395,0.0,8.51,10.03,-9999.0,'1111122,1111122,1111122' 
DISL,ioos:station:DISL:CATA:1,2012-03-03T14:30:00Z,30.3085,-88.1395,0.0,7.79,13.92,-9999.0,'1111122,1111122,1111122' 
DISL,ioos:station:DISL:CATA:1,2012-03-03T15:00:00Z,30.3085,-88.1395,0.0,6.82,27.5,-9999.0,'1111122,1111122,1111122' 
DISL,ioos:station:DISL:CATA:1,2012-03-03T15:30:00Z,30.3085,-88.1395,0.0,8.11,7.783,-9999.0,'1111122,1111122,1111122' 
DISL,ioos:station:DISL:CATA:1,2012-03-03T16:00:00Z,30.3085,-88.1395,0.0,6.8,4.64,-9999.0,'1111122,1111122,1111122' 
DISL,ioos:station:DISL:CATA:1,2012-03-03T16:30:00Z,30.3085,-88.1395,0.0,6.54,23.38,-9999.0,'1111122,1111122,1111122' 
DISL,ioos:station:DISL:CATA:1,2012-03-03T17:00:00Z,30.3085,-88.1395,0.0,5.15,34.89,-9999.0,'1111122,1111122,1111122' 
DISL,ioos:station:DISL:CATA:1,2012-03-03T17:30:00Z,30.3085,-88.1395,0.0,7.84,9.95,-9999.0,'1111122,1111122,1111122' 
DISL,ioos:station:DISL:CATA:1,2012-03-03T18:00:00Z,30.3085,-88.1395,0.0,6.22,19.46,-9999.0,'1111122,1111122,1111122' 
DISL,ioos:station:DISL:CATA:1,2012-03-03T18:30:00Z,30.3085,-88.1395,0.0,5.26,349.6,-9999.0,'1111122,1111122,1111122' 
DISL,ioos:station:DISL:CATA:1,2012-03-03T19:00:00Z,30.3085,-88.1395,0.0,4.19,11.69,-9999.0,'1111122,1111122,1111122' 
DISL,ioos:station:DISL:CATA:1,2012-03-03T19:30:00Z,30.3085,-88.1395,0.0,4.83,27.29,-9999.0,'1111122,1111122,1111122' 
DISL,ioos:station:DISL:CATA:1,2012-03-03T20:00:00Z,30.3085,-88.1395,0.0,6.47,36.63,-9999.0,'1111122,1111122,1111122' 
DISL,ioos:station:DISL:CATA:1,2012-03-03T20:30:00Z,30.3085,-88.1395,0.0,5.61,11.41,-9999.0,'1111122,1111122,1111122' 
DISL,ioos:station:DISL:CATA:1,2012-03-03T21:00:00Z,30.3085,-88.1395,0.0,5.5,8.69,-9999.0,'1111122,1111122,1111122' 
DISL,ioos:station:DISL:CATA:1,2012-03-03T21:30:00Z,30.3085,-88.1395,0.0,5.38,11.97,-9999.0,'1111122,1111122,1111122' 
DISL,ioos:station:DISL:CATA:1,2012-03-03T22:00:00Z,30.3085,-88.1395,0.0,4.6,5.796,-9999.0,'1111122,1111122,1111122' 
DISL,ioos:station:DISL:CATA:1,2012-03-03T22:30:00Z,30.3085,-88.1395,0.0,5.26,356.7,-9999.0,'1111122,1111122,1111122' 
DISL,ioos:station:DISL:CATA:1,2012-03-03T23:00:00Z,30.3085,-88.1395,0.0,7.42,350.1,-9999.0,'1111122,1111122,1111122' 
DISL,ioos:station:DISL:CATA:1,2012-03-03T23:30:00Z,30.3085,-88.1395,0.0,6.2,2.117,-9999.0,'1111122,1111122,1111122' 
DISL,ioos:station:DISL:CATA:1,2012-03-04T00:00:00Z,30.3085,-88.1395,0.0,6.0,8.21,-9999.0,'1111122,1111122,1111122' 
DISL,ioos:station:DISL:CATA:1,2012-03-04T00:30:00Z,30.3085,-88.1395,0.0,5.74,2.256,-9999.0,'1111122,1111122,1111122' 
DISL,ioos:station:DISL:CATA:1,2012-03-04T01:00:00Z,30.3085,-88.1395,0.0,7.34,359.1,-9999.0,'1111122,1111122,1111122' 
DISL,ioos:station:DISL:CATA:1,2012-03-04T01:30:00Z,30.3085,-88.1395,0.0,7.17,359.8,-9999.0,'1111122,1111122,1111122' 
DISL,ioos:station:DISL:CATA:1,2012-03-04T02:00:00Z,30.3085,-88.1395,0.0,7.33,359.3,-9999.0,'1111122,1111122,1111122' 
DISL,ioos:station:DISL:CATA:1,2012-03-04T02:30:00Z,30.3085,-88.1395,0.0,7.05,0.263,-9999.0,'1111122,1111122,1111122' 
DISL,ioos:station:DISL:CATA:1,2012-03-04T03:00:00Z,30.3085,-88.1395,0.0,7.97,355.0,-9999.0,'1111122,1111122,1111122' 
DISL,ioos:station:DISL:CATA:1,2012-03-04T03:30:00Z,30.3085,-88.1395,0.0,6.54,355.9,-9999.0,'1111122,1111122,1111122' 
DISL,ioos:station:DISL:CATA:1,2012-03-04T04:00:00Z,30.3085,-88.1395,0.0,6.88,355.1,-9999.0,'1111122,1111122,1111122' 
DISL,ioos:station:DISL:CATA:1,2012-03-04T04:30:00Z,30.3085,-88.1395,0.0,8.84,340.5,-9999.0,'1111122,1111122,1111122' 
DISL,ioos:station:DISL:CATA:1,2012-03-04T05:00:00Z,30.3085,-88.1395,0.0,10.53,337.9,-9999.0,'1111122,1111122,1111122' 
DISL,ioos:station:DISL:CATA:1,2012-03-04T05:30:00Z,30.3085,-88.1395,0.0,9.04,334.8,-9999.0,'1111122,1111122,1111122' 
DISL,ioos:station:DISL:CATA:1,2012-03-04T06:00:00Z,30.3085,-88.1395,0.0,8.52,342.6,-9999.0,'1111122,1111122,1111122' 
DISL,ioos:station:DISL:CATA:1,2012-03-04T06:30:00Z,30.3085,-88.1395,0.0,7.11,337.6,-9999.0,'1111122,1111122,1111122' 
DISL,ioos:station:DISL:CATA:1,2012-03-04T07:00:00Z,30.3085,-88.1395,0.0,6.44,328.7,-9999.0,'1111122,1111122,1111122' 
DISL,ioos:station:DISL:CATA:1,2012-03-04T07:30:00Z,30.3085,-88.1395,0.0,5.41,327.2,-9999.0,'1111122,1111122,1111122' 
DISL,ioos:station:DISL:CATA:1,2012-03-04T08:00:00Z,30.3085,-88.1395,0.0,6.22,323.4,-9999.0,'1111122,1111122,1111122' 
DISL,ioos:station:DISL:CATA:1,2012-03-04T08:30:00Z,30.3085,-88.1395,0.0,5.82,321.2,-9999.0,'1111122,1111122,1111122' 
DISL,ioos:station:DISL:CATA:1,2012-03-04T09:00:00Z,30.3085,-88.1395,0.0,6.28,324.3,-9999.0,'1111122,1111122,1111122' 
DISL,ioos:station:DISL:CATA:1,2012-03-04T09:30:00Z,30.3085,-88.1395,0.0,5.8,324.2,-9999.0,'1111122,1111122,1111122' 
DISL,ioos:station:DISL:CATA:1,2012-03-04T10:00:00Z,30.3085,-88.1395,0.0,5.67,323.7,-9999.0,'1111122,1111122,1111122' 
DISL,ioos:station:DISL:CATA:1,2012-03-04T10:30:00Z,30.3085,-88.1395,0.0,6.67,323.2,-9999.0,'1111122,1111122,1111122' 
DISL,ioos:station:DISL:CATA:1,2012-03-04T11:00:00Z,30.3085,-88.1395,0.0,6.91,323.5,-9999.0,'1111122,1111122,1111122' 
DISL,ioos:station:DISL:CATA:1,2012-03-04T11:30:00Z,30.3085,-88.1395,0.0,5.26,326.7,-9999.0,'1111122,1111122,1111122' 
DISL,ioos:station:DISL:CATA:1,2012-03-04T12:00:00Z,30.3085,-88.1395,0.0,5.79,326.5,-9999.0,'1111122,1111122,1111122' 
DISL,ioos:station:DISL:CATA:1,2012-03-04T12:30:00Z,30.3085,-88.1395,0.0,5.15,328.0,-9999.0,'1111122,1111122,1111122' 
DISL,ioos:station:DISL:CATA:1,2012-03-04T13:00:00Z,30.3085,-88.1395,0.0,5.28,328.9,-9999.0,'1111122,1111122,1111122' 
DISL,ioos:station:DISL:CATA:1,2012-03-04T13:30:00Z,30.3085,-88.1395,0.0,5.3,328.7,-9999.0,'1111122,1111122,1111122' 
DISL,ioos:station:DISL:CATA:1,2012-03-04T14:00:00Z,30.3085,-88.1395,0.0,3.92,339.9,-9999.0,'1111122,1111122,1111122' 
DISL,ioos:station:DISL:CATA:1,2012-03-04T14:30:00Z,30.3085,-88.1395,0.0,2.78,338.1,-9999.0,'1111122,1111122,1111122' 
DISL,ioos:station:DISL:CATA:1,2012-03-04T15:00:00Z,30.3085,-88.1395,0.0,1.57,324.1,-9999.0,'1111122,1111122,1111122' 
DISL,ioos:station:DISL:CATA:1,2012-03-04T15:30:00Z,30.3085,-88.1395,0.0,1.5,93.9,-9999.0,'1111122,1111122,1111122' 
DISL,ioos:station:DISL:CATA:1,2012-03-04T16:00:00Z,30.3085,-88.1395,0.0,0.97,178.5,-9999.0,'1111122,1111122,1111122' 
DISL,ioos:station:DISL:CATA:1,2012-03-04T16:30:00Z,30.3085,-88.1395,0.0,4.51,261.3,-9999.0,'1111122,1111122,1111122' 
DISL,ioos:station:DISL:CATA:1,2012-03-04T17:00:00Z,30.3085,-88.1395,0.0,3.57,272.0,-9999.0,'1111122,1111122,1111122' 
DISL,ioos:station:DISL:CATA:1,2012-03-04T17:30:00Z,30.3085,-88.1395,0.0,8.12,320.0,-9999.0,'1111122,1111122,1111122' 
DISL,ioos:station:DISL:CATA:1,2012-03-04T18:00:00Z,30.3085,-88.1395,0.0,9.67,322.3,-9999.0,'1111122,1111122,1111122' 
DISL,ioos:station:DISL:CATA:1,2012-03-04T18:30:00Z,30.3085,-88.1395,0.0,9.59,323.1,-9999.0,'1111122,1111122,1111122' 
DISL,ioos:station:DISL:CATA:1,2012-03-04T19:00:00Z,30.3085,-88.1395,0.0,6.87,320.7,-9999.0,'1111122,1111122,1111122' 
DISL,ioos:station:DISL:CATA:1,2012-03-04T19:30:00Z,30.3085,-88.1395,0.0,7.77,308.6,-9999.0,'1111122,1111122,1111122' 
DISL,ioos:station:DISL:CATA:1,2012-03-04T20:00:00Z,30.3085,-88.1395,0.0,6.77,288.6,-9999.0,'1111122,1111122,1111122' 
DISL,ioos:station:DISL:CATA:1,2012-03-04T20:30:00Z,30.3085,-88.1395,0.0,7.15,282.6,-9999.0,'1111122,1111122,1111122' 
DISL,ioos:station:DISL:CATA:1,2012-03-04T21:00:00Z,30.3085,-88.1395,0.0,8.05,245.9,-9999.0,'1111122,1111122,1111122' 
DISL,ioos:station:DISL:CATA:1,2012-03-04T21:30:00Z,30.3085,-88.1395,0.0,7.54,240.0,-9999.0,'1111122,1111122,1111122' 
DISL,ioos:station:DISL:CATA:1,2012-03-04T22:00:00Z,30.3085,-88.1395,0.0,6.65,250.9,-9999.0,'1111122,1111122,1111122' 
DISL,ioos:station:DISL:CATA:1,2012-03-04T22:30:00Z,30.3085,-88.1395,0.0,8.04,265.1,-9999.0,'1111122,1111122,1111122' 
DISL,ioos:station:DISL:CATA:1,2012-03-04T23:00:00Z,30.3085,-88.1395,0.0,8.59,249.1,-9999.0,'1111122,1111122,1111122' 
DISL,ioos:station:DISL:CATA:1,2012-03-04T23:30:00Z,30.3085,-88.1395,0.0,9.12,247.3,-9999.0,'1111122,1111122,1111122' 
DISL,ioos:station:DISL:CATA:1,2012-03-05T00:00:00Z,30.3085,-88.1395,0.0,8.41,254.7,-9999.0,'1111122,1111122,1111122' 
DISL,ioos:station:DISL:CATA:1,2012-03-05T00:30:00Z,30.3085,-88.1395,0.0,8.61,250.4,-9999.0,'1111122,1111122,1111122' 
DISL,ioos:station:DISL:CATA:1,2012-03-05T01:00:00Z,30.3085,-88.1395,0.0,8.84,259.2,-9999.0,'1111122,1111122,1111122' 
DISL,ioos:station:DISL:CATA:1,2012-03-05T01:30:00Z,30.3085,-88.1395,0.0,8.62,254.9,-9999.0,'1111122,1111122,1111122' 
DISL,ioos:station:DISL:CATA:1,2012-03-05T02:00:00Z,30.3085,-88.1395,0.0,8.78,256.7,-9999.0,'1111122,1111122,1111122' 
DISL,ioos:station:DISL:CATA:1,2012-03-05T02:30:00Z,30.3085,-88.1395,0.0,8.77,255.3,-9999.0,'1111122,1111122,1111122' 
DISL,ioos:station:DISL:CATA:1,2012-03-05T03:00:00Z,30.3085,-88.1395,0.0,8.51,258.6,-9999.0,'1111122,1111122,1111122' 
DISL,ioos:station:DISL:CATA:1,2012-03-05T03:30:00Z,30.3085,-88.1395,0.0,8.45,264.4,-9999.0,'1111122,1111122,1111122' 
DISL,ioos:station:DISL:CATA:1,2012-03-05T04:00:00Z,30.3085,-88.1395,0.0,7.61,262.4,-9999.0,'1111122,1111122,1111122' 
DISL,ioos:station:DISL:CATA:1,2012-03-05T04:30:00Z,30.3085,-88.1395,0.0,7.14,264.8,-9999.0,'1111122,1111122,1111122' 